This is the latest recevied weather packets stored in our database for station/object KD8TSA. If no packets are shown the sender has not sent any weather packets the latest 10 day(s).
| Time | Temp. | Humidity | Pressure | Rain* | Wind** | Luminosity | Snow |
|---|---|---|---|---|---|---|---|
| 1777608198 | 7.22° C | 78% | 1014.7 hPa | 0 mm | - | 0 W/m² | - |
| 1777607895 | 7.22° C | 78% | 1014.5 hPa | 0 mm | - | 0 W/m² | - |
| 1777607590 | 7.22° C | 77% | 1014.5 hPa | 0 mm | - | 0 W/m² | - |
| 1777607288 | 6.67° C | 78% | 1014.6 hPa | 0 mm | - | 0 W/m² | - |
| 1777606983 | 6.67° C | 78% | 1014.6 hPa | 0 mm | - | 0 W/m² | - |
| 1777606679 | 7.22° C | 78% | 1014.6 hPa | 0 mm | - | 0 W/m² | - |
| 1777606375 | 7.22° C | 78% | 1014.6 hPa | 0 mm | - | 0 W/m² | - |
| 1777606070 | 7.22° C | 77% | 1014.7 hPa | 0 mm | - | 0 W/m² | - |
| 1777605766 | 7.22° C | 77% | 1014.7 hPa | 0 mm | - | 0 W/m² | - |
| 1777605464 | 7.22° C | 78% | 1014.7 hPa | 0 mm | - | 0 W/m² | - |
| 1777605162 | 7.78° C | 78% | 1014.7 hPa | 0 mm | - | 0 W/m² | - |
| 1777604857 | 7.78° C | 77% | 1014.8 hPa | 0 mm | - | 0 W/m² | - |
| 1777604554 | 7.78° C | 77% | 1014.9 hPa | 0 mm | - | 0 W/m² | - |
| 1777604250 | 7.78° C | 77% | 1014.9 hPa | 0 mm | - | 0 W/m² | - |
| 1777603945 | 7.22° C | 78% | 1014.9 hPa | 0 mm | - | 0 W/m² | - |
| 1777603643 | 7.78° C | 78% | 1014.9 hPa | 0 mm | - | 0 W/m² | - |
| 1777603339 | 7.78° C | 78% | 1014.9 hPa | 0 mm | - | 0 W/m² | - |
| 1777603034 | 7.78° C | 77% | 1014.9 hPa | 0 mm | - | 0 W/m² | - |
| 1777602730 | 7.22° C | 79% | 1014.8 hPa | 0 mm | - | 0 W/m² | - |
| 1777602424 | 7.22° C | 80% | 1014.9 hPa | 0 mm | - | 0 W/m² | - |
| 1777602122 | 7.78° C | 80% | 1014.8 hPa | 0 mm | - | 0 W/m² | - |
| 1777586636 | 13.89° C | 53% | 1014.7 hPa | 0 mm | - | 327 W/m² | - |
| 1777584816 | 14.44° C | 54% | 1014.4 hPa | 0 mm | - | 148 W/m² | - |
| 1777584514 | 14.44° C | 55% | 1014.3 hPa | 0 mm | - | 467 W/m² | - |
| 1777582392 | 13.89° C | 54% | 1014.7 hPa | 0 mm | - | 524 W/m² | - |
* Rain latest hour (hover to see other rain measurements)
** Current wind speed in m/s (hover to see current wind gust speed)